Wind_Speed
22 22 21 21 21 20 19 18 18 17 17 17 17 16 16 16 15 15 15 14 14 14 14 14 14 14 14 15 16 17 18 18 18 18 18 19 19 18 18 18 17 17 17 17 17 16 16 15 15 16 18 19 19 17 15 13 13 14 16 17 17 17 17 17 19 20 21 23 23
23 22 21 21 21 19 18 18 18 17 17 17 16 16 16 16 15 15 14 14 14 14 13 13 13 13 14 15 16 17 17 17 17 17 17 17 17 17 17 16 16 16 17 18 17 16 16 16 17 19 20 21 20 19 17 16 15 16 18 19 20 19 19 20 21 21 22 22 23
23 22 22 21 21 20 18 18 18 18 17 17 16 16 16 15 15 14 14 14 14 13 12 12 12 13 13 15 16 16 16 16 16 16 16 16 15 15 15 15 16 17 17 17 16 16 16 17 19 20 21 21 20 20 20 21 21 21 21 21 21 21 21 21 21 21 21 21 22
23 22 22 22 22 21 19 18 18 18 18 16 16 16 15 15 14 14 14 13 13 13 12 12 12 12 13 15 16 16 15 14 14 14 14 14 14 14 14 14 16 17 16 15 15 15 16 17 19 21 21 21 21 21 21 21 22 22 22 22 21 21 21 21 21 22 22 22 23
24 23 22 22 22 21 20 18 19 19 18 17 16 16 15 15 14 14 13 13 13 13 12 12 11 12 13 15 16 15 15 15 15 14 14 14 14 14 14 15 16 16 15 14 14 14 14 15 18 20 21 21 21 19 18 18 20 21 22 21 21 21 21 21 22 23 23 23 23
24 23 22 22 22 21 19 18 19 19 18 17 16 16 15 15 14 14 13 13 13 13 12 12 11 12 13 14 14 14 14 15 16 15 14 14 14 14 15 15 15 15 15 14 15 15 15 16 18 19 20 20 20 19 19 19 20 20 21 21 21 21 22 22 22 23 23 22 22
24 23 22 21 22 21 19 18 19 18 18 17 17 17 16 15 15 14 14 13 12 12 12 12 11 11 12 12 13 13 13 14 14 15 15 13 14 14 14 14 13 13 14 15 16 17 18 18 18 19 19 20 20 19 19 20 20 20 20 20 21 22 22 21 22 22 21 21 20
23 23 22 21 22 21 20 19 19 18 18 17 17 17 17 16 15 15 14 13 12 13 13 13 12 11 11 11 12 12 12 13 13 14 15 14 14 13 12 12 11 12 13 15 17 18 19 19 19 19 19 19 19 19 19 20 20 20 20 20 20 21 21 20 21 21 21 20 20
23 22 22 21 21 21 20 19 19 18 18 17 17 17 17 16 15 15 14 13 13 13 13 13 12 12 11 11 11 11 12 12 12 13 14 14 14 14 13 12 11 11 13 14 16 17 18 18 18 19 19 20 19 18 18 19 19 19 18 18 18 19 20 20 20 20 20 20 20
23 22 22 21 21 21 20 19 19 18 18 17 17 17 17 16 15 15 14 13 13 12 12 12 12 12 11 11 11 11 11 11 11 12 13 14 14 14 14 14 13 13 13 14 14 14 15 16 17 18 18 18 17 17 17 17 17 17 17 17 17 17 18 19 20 20 20 20 20
23 22 22 21 21 21 20 19 18 18 17 16 16 16 16 15 15 14 13 12 12 12 11 11 12 12 12 11 11 11 11 11 10 10 11 12 13 14 15 15 15 14 13 13 12 12 13 14 15 16 16 15 15 15 15 16 16 16 16 16 16 16 17 18 18 18 18 18 19
22 22 21 21 21 21 20 19 18 17 17 16 16 16 16 15 14 14 13 12 12 11 11 11 12 12 12 11 11 11 11 11 11 10 10 10 11 12 13 14 14 14 13 12 12 12 13 13 13 13 13 13 12 13 13 14 14 14 14 14 14 15 16 16 17 17 17 16 16
22 21 21 20 21 20 20 19 17 17 16 16 16 15 15 14 14 14 13 12 12 11 11 11 11 11 11 11 11 11 11 11 11 11 10 10 10 10 11 11 12 12 12 11 12 12 12 11 11 11 11 11 11 11 11 11 12 12 12 13 13 14 14 14 15 15 15 15 14
21 21 21 21 21 20 19 18 17 16 16 16 15 15 14 14 14 14 13 12 11 11 11 11 11 11 11 11 11 11 11 12 12 12 11 10 10 10 10 10 10 10 10 10 10 9 9 9 8 8 9 9 9 9 9 8 9 9 10 11 11 12 12 12 13 14 14 14 13
21 21 21 21 21 20 19 18 16 16 16 16 15 14 14 14 14 14 13 12 12 12 11 11 11 11 10 10 10 10 10 11 12 12 11 10 10 10 10 10 9 9 9 9 8 7 7 7 7 7 7 8 8 7 7 6 6 7 8 9 10 10 10 11 12 13 13 13 13
21 21 21 21 21 20 19 18 16 16 16 16 15 14 13 13 13 13 13 13 12 12 11 11 11 11 11 10 10 10 10 10 11 11 10 10 10 11 11 10 10 9 9 8 7 6 6 6 6 6 6 6 6 6 5 5 6 6 7 7 8 9 10 11 12 13 13 13 13
21 21 21 21 20 20 19 17 16 16 16 16 15 14 13 13 13 13 13 13 13 13 12 11 11 11 11 11 11 11 10 10 10 9 9 9 9 10 10 10 10 10 10 8 6 6 6 6 6 5 5 4 4 4 4 5 5 6 6 7 7 8 9 11 12 12 13 13 13
21 21 21 21 20 20 19 17 16 16 16 16 15 14 14 13 13 13 14 14 14 14 13 12 11 11 12 12 12 11 10 10 9 8 8 8 8 9 9 10 10 10 10 8 7 7 6 6 5 4 4 3 3 4 4 4 4 5 5 6 7 8 9 10 11 12 12 12 12
21 21 21 21 20 19 18 18 16 16 16 16 15 15 14 14 14 14 14 14 14 14 13 12 11 11 11 11 11 11 10 9 9 9 9 9 9 9 9 10 10 10 9 8 8 8 7 6 5 4 3 3 3 3 3 4 4 4 5 5 6 7 8 9 10 10 11 11 11
21 21 21 20 20 19 18 18 16 16 16 16 16 15 15 15 15 15 15 14 14 14 13 13 12 11 11 10 10 10 10 10 10 10 10 10 10 10 9 8 8 7 7 7 8 8 6 5 4 3 3 3 3 3 3 4 4 4 5 5 5 6 6 7 8 9 10 10 11
21 21 21 20 20 19 18 17 17 16 16 16 16 16 16 16 16 16 15 14 14 14 13 13 12 12 12 11 11 11 11 11 11 11 11 11 10 10 8 7 6 5 5 6 6 6 5 4 4 3 3 2 3 3 3 3 3 4 4 4 4 5 5 6 6 7 8 9 9
20 20 20 19 19 19 18 17 17 16 16 16 16 16 16 17 16 15 15 14 14 14 13 13 12 12 12 12 12 12 12 12 12 12 11 10 10 9 8 7 6 5 5 5 5 5 5 5 5 5 4 4 4 3 2 2 2 3 3 4 4 4 5 5 6 6 7 7 7
20 20 19 19 19 19 18 17 17 17 17 17 16 16 17 17 16 15 15 14 14 14 13 13 13 13 13 13 13 13 13 12 12 11 10 10 10 10 9 8 7 7 6 6 6 6 7 7 7 6 6 5 4 3 2 2 3 3 3 3 4 4 4 5 5 6 6 6 6
20 20 19 19 19 19 18 18 17 17 17 17 16 17 17 17 16 16 15 15 15 14 14 13 13 13 13 13 13 12 12 12 12 12 11 10 10 10 9 8 7 7 7 8 7 7 7 7 7 7 6 5 4 3 3 5 5 4 3 3 4 4 4 4 4 4 4 4 4
20 20 19 19 19 19 18 18 18 17 17 17 17 17 18 18 18 18 17 16 16 15 14 14 14 14 13 13 11 11 11 12 13 12 12 11 10 9 8 8 7 7 8 8 8 8 8 7 7 6 6 5 4 4 4 6 5 4 3 3 3 3 3 3 3 3 3 3 3
20 20 20 20 19 19 18 18 18 18 18 17 18 18 18 18 18 18 18 17 16 16 15 15 15 14 13 12 12 12 12 12 12 12 12 11 10 10 9 9 8 8 8 9 9 9 8 7 7 6 6 5 5 5 5 5 4 4 3 3 3 3 2 2 3 3 3 3 3
20 20 20 20 19 19 19 18 18 18 18 18 18 18 18 18 18 18 17 17 16 16 16 15 15 14 13 13 13 13 13 12 12 12 11 11 10 10 10 10 9 9 10 10 9 9 8 8 7 7 6 5 5 5 5 4 4 4 4 4 4 3 2 2 2 2 2 3 3
20 20 20 20 19 19 19 18 18 18 18 18 18 18 18 18 18 18 17 17 17 16 16 15 14 14 13 13 13 13 13 13 13 12 11 10 10 10 10 11 11 11 11 10 10 9 9 8 7 7 6 4 3 3 3 2 3 3 4 4 3 3 2 2 2 2 2 2 3
20 20 20 20 19 19 19 18 18 18 18 18 18 18 18 18 18 18 18 17 17 16 16 15 14 14 14 14 14 13 13 13 13 12 11 10 10 10 11 12 12 12 11 11 10 10 9 8 7 7 6 5 3 1 1 1 1 1 2 2 2 2 2 2 2 2 2 2 2
20 20 20 19 19 19 18 18 18 18 18 18 18 19 19 19 19 18 18 17 16 16 16 15 15 15 16 15 15 14 14 13 12 12 11 11 10 11 11 12 12 12 12 11 10 10 9 8 7 7 6 6 4 2 1 1 0 1 1 1 1 1 2 2 2 2 2 2 2
20 20 20 19 19 19 18 18 18 18 18 19 20 20 20 19 19 18 17 17 16 16 16 16 17 17 17 16 15 15 14 13 13 12 11 11 12 12 12 11 11 11 11 11 10 8 7 7 6 6 6 6 5 4 3 3 2 1 1 1 1 1 1 1 1 2 2 2 2
20 20 20 19 19 19 18 18 18 19 20 20 20 20 20 20 19 18 18 17 17 17 17 17 17 17 17 16 16 15 15 14 13 13 13 13 13 13 12 11 10 10 10 10 9 7 6 6 6 6 7 7 7 5 4 3 2 2 2 2 1 2 2 2 2 2 3 1 1
20 20 20 19 19 19 19 19 20 20 21 20 20 20 20 20 19 19 18 18 18 18 17 17 17 17 16 16 16 15 15 14 14 14 14 13 13 12 12 11 10 10 10 9 8 7 6 5 5 6 7 7 6 5 4 3 3 3 2 2 2 2 3 3 3 3 3 2 1
20 20 20 20 20 20 20 20 21 21 21 20 20 21 21 20 20 19 18 18 18 17 17 17 17 16 16 15 15 15 15 15 14 14 14 13 13 12 12 11 11 10 10 9 9 8 6 5 4 5 6 7 5 4 4 4 3 3 2 2 3 3 3 3 4 5 5 4 2
21 21 21 21 21 21 21 21 21 21 21 21 21 21 20 20 19 19 18 18 18 17 17 16 16 16 15 15 15 15 15 15 14 14 13 13 12 12 12 12 11 11 11 10 9 8 6 5 4 4 5 6 5 4 4 4 3 3 3 3 4 4 3 3 4 6 6 6 4
21 21 21 21 21 21 21 20 20 20 21 21 21 20 20 19 19 19 19 19 19 18 18 17 16 16 15 15 14 14 14 14 14 13 12 12 11 11 11 11 11 11 11 10 9 8 7 6 5 4 4 4 4 4 4 4 4 4 4 5 5 4 4 3 3 5 6 6 5
21 22 22 22 22 21 20 20 20 20 20 20 20 20 20 19 19 19 19 19 19 19 18 17 17 16 16 15 15 14 13 13 13 13 12 11 11 11 11 11 11 11 11 10 10 9 8 7 6 5 4 5 4 4 4 4 5 6 6 6 6 5 4 4 3 4 4 5 5
21 22 23 22 22 21 20 20 20 20 20 20 20 20 20 20 19 19 19 19 19 19 18 18 17 17 17 17 16 15 14 13 13 12 12 11 10 10 10 11 10 10 10 10 10 9 8 7 6 6 5 5 5 4 5 5 6 6 6 7 6 6 6 5 5 4 4 4 4
21 22 23 23 22 21 20 20 20 20 21 21 20 20 20 20 19 18 18 18 18 19 19 19 18 18 18 18 17 16 15 14 13 12 12 11 11 10 10 10 10 9 9 9 9 8 8 7 6 6 6 5 5 5 6 6 6 7 7 7 7 7 6 6 6 6 5 5 4
21 22 22 22 22 21 21 20 20 21 21 21 21 20 20 19 19 18 18 18 19 19 19 19 19 19 18 18 17 17 16 15 14 13 13 13 12 11 10 9 9 9 9 8 8 8 7 7 7 7 7 6 5 6 6 7 6 6 7 7 7 7 7 6 6 6 6 6 5
21 21 21 21 21 21 21 21 21 21 22 22 21 21 21 20 20 19 19 19 19 19 19 19 19 19 18 18 17 17 16 15 14 14 13 13 13 11 10 10 9 9 8 8 8 8 8 8 8 8 7 7 6 6 6 6 6 6 6 6 6 6 6 6 6 6 6 6 6
Wind_Direction
190 189 189 189 189 187 185 184 184 184 184 184 185 186 187 188 190 190 190 189 191 192 193 194 194 194 194 193 193 194 196 197 198 200 201 202 203 205 206 208 208 208 208 207 208 208 208 207 208 211 214 215 213 211 210 213 219 223 225 226 228 232 236 240 241 242 242 242 241
189 188 188 188 187 185 183 183 184 184 184 185 185 186 186 188 189 189 189 189 191 192 191 192 193 193 192 190 191 192 194 196 198 199 201 202 204 204 205 206 205 205 205 204 204 204 203 203 205 209 213 214 213 213 216 222 228 231 232 234 236 239 243 245 246 246 246 244 241
188 187 187 186 186 184 183 183 184 184 184 183 183 184 185 186 188 188 188 189 189 189 189 190 191 191 189 187 188 190 192 194 195 197 198 200 201 202 201 201 202 204 205 205 205 206 208 210 213 215 218 221 224 230 236 239 240 239 239 241 243 245 246 246 246 245 245 244 243
188 187 186 186 186 185 183 183 182 182 182 181 182 183 184 185 186 187 187 187 187 187 188 188 188 185 184 186 187 187 188 190 191 192 194 195 196 196 197 200 204 206 207 207 208 212 218 222 224 225 228 232 237 242 245 244 241 240 241 244 245 245 245 245 246 246 246 247 247
188 187 186 186 186 184 183 181 180 180 179 179 180 181 182 184 185 186 186 186 187 187 186 184 180 177 180 187 187 186 186 188 188 189 190 191 192 193 197 203 208 210 210 210 211 215 219 224 228 231 234 236 237 236 235 235 236 239 242 244 244 244 245 247 249 251 251 251 250
187 186 186 185 184 183 182 181 179 178 178 179 179 180 181 182 184 184 185 186 186 185 181 177 170 172 179 185 183 183 186 190 191 190 190 191 192 196 201 207 211 212 211 210 210 210 212 217 224 229 231 231 229 228 229 232 236 240 243 243 244 245 247 250 252 254 255 254 252
186 185 184 183 182 181 180 179 178 177 178 179 180 181 181 182 183 184 185 184 181 177 172 168 165 168 175 179 177 178 182 187 191 191 190 190 192 197 202 207 210 211 211 211 211 211 213 217 222 226 228 228 227 229 233 238 242 244 245 244 247 249 251 253 255 257 257 256 253
185 184 183 181 180 179 178 177 177 177 178 180 182 182 182 182 182 183 183 180 174 170 169 169 167 166 169 172 173 176 180 185 189 191 191 190 193 196 198 201 203 206 211 216 218 219 221 225 228 230 231 233 235 238 242 246 248 248 247 247 250 253 255 256 259 261 261 260 255
182 182 181 179 178 178 177 176 176 177 179 181 182 183 183 182 182 182 179 174 169 169 172 174 172 169 167 169 170 174 179 185 188 191 194 195 196 195 194 194 194 199 208 218 223 226 228 232 235 236 238 241 244 247 250 252 251 250 250 251 253 257 259 261 262 264 265 262 257
180 179 178 177 176 175 175 175 176 177 179 181 182 183 183 183 182 180 176 169 167 168 170 172 173 171 169 169 169 170 173 179 184 190 196 199 200 198 195 193 192 195 205 217 224 228 232 236 237 238 241 245 248 251 253 254 253 252 252 254 255 258 261 263 265 265 265 262 257
177 176 175 174 173 173 173 173 175 177 179 181 182 182 182 182 180 177 171 166 166 167 168 169 170 170 170 168 168 168 167 166 170 178 189 198 202 202 201 200 200 203 210 218 225 229 231 234 236 237 240 245 250 253 254 256 256 255 254 255 255 256 259 262 264 264 263 261 259
174 173 173 172 171 171 171 172 174 177 179 180 180 181 180 179 176 171 167 166 166 167 168 167 168 168 167 165 164 163 162 161 162 168 180 193 200 203 204 206 209 212 217 223 228 230 230 232 233 235 238 243 248 252 254 257 257 256 255 255 256 256 258 261 264 265 265 264 262
171 170 170 169 169 169 170 171 173 176 178 179 179 178 177 174 169 168 167 166 166 166 165 163 163 163 161 158 158 161 164 165 167 171 179 188 192 194 197 203 209 213 216 221 227 230 230 232 234 236 238 242 247 250 253 257 259 259 258 257 257 258 260 262 264 267 268 268 268
169 168 168 168 167 168 169 170 172 175 177 177 178 176 172 166 167 168 167 165 164 161 158 156 155 155 155 155 161 169 176 179 180 179 179 180 179 179 181 189 198 203 207 214 223 227 229 231 235 237 238 241 244 249 255 261 265 267 266 264 262 262 262 263 265 268 269 270 271
167 168 167 167 167 168 169 169 171 173 175 176 176 171 165 162 165 167 166 162 158 155 151 149 148 149 151 156 165 175 182 185 184 181 178 176 175 174 175 180 186 191 198 207 216 222 224 226 231 235 237 240 243 249 256 267 275 279 278 273 269 265 263 262 263 266 268 271 272
167 167 167 166 167 168 169 170 171 173 173 174 171 165 160 159 161 163 161 157 154 151 148 147 148 151 153 158 164 170 175 176 178 178 178 178 179 179 179 179 179 184 191 200 206 210 214 219 229 234 237 239 243 247 255 267 277 282 281 277 271 265 261 259 261 264 268 272 272
167 167 167 167 168 169 169 170 172 173 173 171 165 160 157 157 157 157 157 155 154 151 148 148 151 155 159 162 164 166 168 170 172 175 176 180 183 184 182 176 173 179 187 188 184 185 196 210 224 234 237 236 237 241 249 260 270 276 278 275 269 263 259 259 261 264 267 271 271
166 166 167 168 169 169 170 170 171 171 170 168 163 159 157 155 153 152 155 157 157 153 148 147 152 159 165 168 169 169 167 166 165 164 166 172 176 177 174 169 171 180 184 176 164 168 184 202 215 225 228 227 227 232 242 254 264 271 274 274 269 265 262 262 263 265 267 269 270
166 166 167 168 169 169 169 170 169 168 167 165 161 158 155 152 151 152 155 159 159 155 149 147 149 157 165 170 171 167 162 156 153 153 154 157 160 161 161 165 176 185 187 177 171 175 186 196 203 207 210 212 216 221 230 244 254 262 267 268 268 267 267 267 267 269 270 271 270
166 166 167 168 168 168 168 169 166 165 164 163 159 155 151 149 153 156 157 158 159 155 151 147 147 150 155 160 158 154 150 146 145 146 148 151 151 152 156 167 178 186 187 184 185 187 190 188 185 186 193 202 206 213 224 235 245 250 254 259 263 266 270 272 274 275 275 274 272
166 166 167 166 166 166 166 166 164 163 162 160 156 151 148 149 155 158 157 156 154 152 150 148 147 147 147 147 145 143 140 140 143 147 151 153 151 152 157 165 169 168 172 180 184 185 178 165 156 156 166 184 202 213 221 229 236 246 252 258 262 267 272 275 277 277 276 275 273
165 165 165 164 164 163 163 162 162 161 160 158 154 148 145 150 153 154 152 149 149 148 147 146 145 144 143 142 140 140 141 143 147 151 154 152 147 146 150 157 156 155 158 166 168 164 155 148 148 151 160 175 201 212 207 200 209 231 251 263 267 271 276 279 279 278 278 279 277
162 162 161 161 161 161 161 160 159 158 157 156 149 144 143 147 146 145 144 143 144 144 143 141 139 138 138 140 143 146 147 146 146 146 145 142 139 142 148 154 154 154 156 157 155 154 153 153 158 163 171 182 197 194 175 179 192 208 228 250 262 270 278 284 283 283 284 286 285
159 159 159 159 160 160 158 157 154 153 152 148 141 139 140 140 139 139 139 139 139 138 135 133 132 134 137 143 149 150 146 142 138 136 135 135 139 144 148 149 147 148 149 147 148 152 156 159 165 170 175 180 180 177 191 205 211 215 223 239 254 264 273 280 283 284 285 283 280
157 157 157 158 158 157 155 152 150 150 148 142 137 136 137 138 138 138 137 135 134 132 131 132 135 139 143 147 146 141 136 134 133 132 132 133 138 140 137 132 131 137 143 144 147 151 155 159 165 169 171 172 172 184 206 219 217 211 212 230 247 257 266 270 271 270 266 257 248
155 155 154 154 153 151 149 147 145 143 140 136 135 136 136 138 139 138 135 132 131 132 135 138 143 146 146 142 136 131 129 129 131 131 131 131 134 133 129 127 130 138 146 148 151 154 157 160 166 172 176 180 189 203 213 219 209 198 198 213 230 244 252 254 252 247 240 234 225
150 150 150 149 147 146 145 143 139 136 134 134 135 135 137 138 137 135 133 131 133 137 141 144 146 144 139 133 129 128 128 130 131 131 130 131 132 132 132 136 143 148 151 152 155 158 161 168 174 179 182 185 197 210 216 218 211 205 207 216 228 232 232 235 231 226 222 218 212
143 143 144 144 143 142 141 138 135 133 133 134 135 135 135 135 135 134 134 136 138 140 142 141 140 137 132 129 128 129 132 133 133 132 131 131 133 135 139 144 147 149 151 154 158 163 168 173 177 176 169 160 184 214 225 226 231 229 230 233 237 232 224 222 224 220 215 213 215
136 137 138 138 138 136 135 133 132 132 133 133 133 133 133 133 134 136 137 139 140 139 138 136 135 134 131 128 129 131 132 133 133 132 131 131 133 138 142 143 145 147 151 156 160 165 169 171 170 162 150 139 148 207 244 223 227 232 235 239 241 234 223 217 217 213 210 212 216
134 134 134 133 132 131 131 131 131 132 132 132 133 134 134 135 136 136 137 137 138 138 138 137 136 134 132 131 131 131 130 130 131 131 129 129 131 135 140 143 145 147 150 155 157 159 159 156 152 148 143 138 133 113 63 74 135 165 172 185 214 219 222 224 216 198 188 198 208
135 134 132 131 130 130 130 131 132 132 133 134 135 135 135 135 135 135 136 137 138 139 140 139 138 136 134 133 131 129 128 128 129 129 130 132 135 139 142 145 148 150 152 153 151 148 143 140 136 135 133 128 111 90 74 79 89 101 107 128 163 189 206 223 195 160 155 182 203
136 134 132 131 131 131 131 132 132 133 134 135 135 134 134 134 135 136 138 138 138 138 138 138 137 135 134 133 131 130 129 130 131 135 140 144 146 147 147 148 149 151 153 152 145 138 134 132 127 122 117 111 98 88 83 89 92 92 92 104 123 135 135 135 123 126 137 173 198
136 134 133 132 132 132 133 133 134 134 135 134 134 134 134 134 135 136 135 134 133 133 134 134 133 133 132 132 132 132 132 134 138 143 148 150 150 149 148 146 148 151 151 147 140 136 136 137 128 117 107 98 90 81 75 77 82 86 95 109 123 128 129 129 132 133 135 146 115
136 135 134 133 133 133 134 134 135 134 134 133 133 133 133 133 132 131 129 127 127 127 127 128 128 129 131 132 133 133 135 137 140 143 144 145 146 144 142 141 144 147 146 139 135 136 139 139 131 115 102 91 83 72 67 71 75 85 101 117 122 126 131 141 154 157 152 141 111
137 136 135 135 135 135 135 135 135 134 133 132 132 132 133 132 130 129 128 127 126 124 123 123 124 126 127 130 132 133 134 136 137 137 137 137 137 137 137 139 143 145 143 137 135 136 138 137 134 119 99 87 80 71 68 73 79 87 99 108 109 111 120 145 170 171 162 148 123
138 138 137 137 136 136 136 135 135 135 134 133 132 132 132 132 131 131 131 131 129 126 123 121 122 122 123 124 127 130 132 133 133 132 131 131 131 132 134 139 144 146 146 142 140 137 136 137 140 132 108 90 81 76 74 80 87 91 93 95 96 99 104 119 155 167 163 152 133
140 139 138 138 137 137 136 136 135 135 134 133 133 133 132 132 131 132 133 133 130 127 124 123 123 123 123 124 125 126 129 131 129 126 125 125 126 129 132 138 143 148 150 148 144 138 136 138 142 135 114 95 86 80 80 87 92 94 94 92 92 93 95 96 115 138 148 147 139
142 140 139 138 138 138 137 137 136 135 134 134 134 134 134 133 131 131 132 132 130 127 126 126 126 126 127 127 126 125 125 125 124 121 119 120 123 127 131 135 142 149 152 150 145 140 138 139 138 128 112 98 91 87 87 90 93 95 95 94 92 91 88 85 88 98 109 115 121
142 141 140 139 138 138 137 136 135 135 134 133 133 133 133 132 130 129 130 131 130 130 129 128 128 129 129 129 126 123 121 120 120 118 117 117 122 127 131 133 139 146 150 149 146 141 137 134 128 119 110 101 95 93 94 95 96 97 97 97 94 92 88 84 82 82 85 87 93
142 141 140 139 138 137 136 135 134 134 134 133 132 131 130 130 128 128 128 129 130 130 130 129 130 130 130 129 125 122 120 121 122 122 122 121 123 125 126 126 130 137 143 146 142 136 130 124 120 117 111 103 98 97 98 98 99 100 100 100 98 95 90 86 80 76 75 75 77
140 140 139 138 137 136 134 133 133 133 134 133 131 131 131 130 128 128 128 128 129 129 129 129 129 129 128 127 124 122 120 120 121 123 124 122 120 117 115 114 116 122 129 135 133 126 121 118 117 117 113 106 101 100 101 101 101 100 99 99 98 97 93 89 84 78 73 70 67
Height
744 745 747 748 750 751 753 754 756 757 759 760 761 762 764 765 766 767 768 770 770 771 772 773 774 775 775 776 777 779 780 781 783 784 785 786 787 788 789 790 791 792 793 794 795 796 797 798 799 800 800 800 801 802 803 804 804 804 805 805 805 806 807 807 808 807 807 808 808
742 744 745 747 749 750 752 753 755 756 757 759 760 761 762 764 765 766 767 768 769 770 771 772 773 774 775 775 776 778 779 780 782 783 784 785 786 787 789 790 790 791 792 793 794 795 795 796 797 798 798 799 799 800 801 802 803 803 803 803 804 805 805 805 806 806 807 807 807
740 742 744 746 747 749 750 752 753 755 756 758 759 760 761 763 764 765 766 767 768 769 770 771 772 773 774 775 775 777 778 780 781 782 783 785 786 787 788 789 789 790 791 792 793 794 794 795 796 796 797 798 799 800 800 801 802 802 803 802 803 803 804 804 805 805 806 806 806
739 741 743 744 745 747 749 750 752 754 755 756 758 759 760 762 763 764 765 766 768 769 769 770 771 772 773 773 775 776 778 779 780 781 783 784 785 786 787 787 788 789 790 791 792 793 794 794 795 795 796 797 798 799 800 800 801 801 801 802 802 803 803 803 804 804 804 805 805
738 740 741 743 744 746 748 749 751 752 754 755 757 758 760 761 762 764 765 765 767 767 768 769 770 771 771 772 774 775 777 778 779 780 782 783 784 785 786 786 787 788 790 791 792 792 793 794 794 795 795 796 797 798 798 799 799 800 800 801 801 801 802 802 802 802 802 803 804
736 738 740 741 743 745 747 748 750 751 753 755 756 757 759 760 761 762 764 765 765 766 767 768 769 770 771 772 773 775 776 777 778 780 781 782 783 784 785 786 787 788 789 790 791 791 792 793 793 793 794 795 795 796 797 797 798 798 799 800 800 800 801 801 801 801 802 802 802
735 737 739 740 742 744 746 747 749 750 752 753 755 756 757 759 760 761 762 764 765 765 766 768 769 769 770 771 773 774 775 776 777 779 780 781 782 783 784 785 786 787 788 789 790 790 791 791 792 793 793 794 795 795 796 796 797 798 798 799 799 799 800 800 800 800 801 801 802
734 736 738 740 741 743 745 746 748 750 751 752 754 755 756 758 759 760 761 763 764 765 765 766 768 769 770 771 772 773 775 775 776 778 779 780 781 782 784 785 786 786 787 788 789 790 790 790 791 792 793 793 794 795 795 795 796 797 797 798 798 798 799 799 799 800 800 800 801
733 735 737 739 740 742 744 745 747 749 750 751 753 754 755 757 758 760 761 762 763 764 765 766 767 768 770 771 772 773 774 775 776 777 778 779 780 782 783 784 785 786 786 787 788 789 789 790 791 791 792 793 793 793 794 795 795 796 796 797 797 797 797 798 798 799 799 800 800
732 734 736 738 740 741 743 745 746 748 749 751 752 754 755 756 757 759 760 761 762 763 764 765 767 768 769 770 771 773 774 774 775 776 777 779 780 781 782 783 784 785 786 786 787 788 789 789 790 790 791 791 792 793 793 794 795 795 796 796 796 796 797 797 797 798 798 798 799
731 733 735 737 739 741 743 744 746 747 749 750 751 753 754 755 757 758 759 760 761 763 764 765 766 767 769 770 771 772 773 774 775 776 777 778 779 780 781 782 783 784 785 786 786 787 788 788 789 790 790 791 791 792 793 793 794 795 795 795 796 796 796 796 796 797 797 797 798
730 732 734 736 738 740 742 744 745 747 748 750 751 752 754 755 756 757 758 759 761 762 763 765 766 767 768 770 771 772 773 774 775 776 777 778 779 780 781 782 783 784 784 785 786 787 787 788 788 789 790 790 791 791 792 793 793 794 795 795 795 795 795 795 795 795 796 796 796
730 732 734 736 738 740 741 743 745 746 747 749 750 751 753 754 755 756 758 759 760 762 763 764 765 767 768 769 770 771 772 773 774 775 776 777 778 779 780 781 782 783 784 785 785 786 787 787 788 789 789 790 790 791 791 792 793 793 794 794 795 795 795 795 795 795 795 795 795
730 731 733 735 737 739 740 742 744 745 747 748 749 751 752 753 754 756 757 759 760 761 762 764 765 766 768 769 770 771 772 773 774 775 776 777 778 779 780 781 782 783 783 784 785 785 786 787 787 788 789 789 790 790 791 792 792 793 793 794 794 794 795 795 795 794 794 794 794
729 731 733 735 736 738 740 741 743 745 746 747 749 750 751 753 754 755 757 758 760 761 762 763 765 766 767 768 770 770 771 772 773 774 775 776 777 779 780 781 782 782 783 784 784 785 786 786 787 787 788 789 789 790 790 791 792 792 793 793 793 794 794 794 794 794 794 794 794
728 730 732 734 736 737 739 741 742 744 745 747 748 750 751 752 753 755 756 758 759 760 762 763 764 765 767 768 769 770 771 772 773 774 775 776 777 778 780 780 781 782 783 783 784 785 785 786 786 787 788 788 789 790 790 791 791 792 792 792 793 793 793 794 794 793 793 793 793
728 730 731 733 735 737 738 740 742 743 745 746 747 749 750 751 753 754 756 757 758 760 761 763 764 765 766 768 769 770 771 771 772 773 774 775 777 778 779 780 781 782 782 783 784 784 785 785 786 787 787 788 789 789 790 790 790 791 791 792 792 792 793 793 793 793 793 793 793
727 729 731 732 734 736 738 739 741 742 744 745 747 748 750 751 752 754 755 756 758 759 761 762 764 765 766 767 768 770 770 771 772 773 774 775 777 778 779 780 780 781 782 783 784 784 785 785 786 786 787 788 788 789 789 790 790 790 791 791 791 792 792 792 792 792 792 792 792
726 728 730 732 734 735 737 739 740 742 743 745 746 748 749 750 752 753 755 756 758 759 761 762 763 765 766 767 768 769 770 771 772 773 774 775 776 778 779 779 780 780 781 782 783 784 785 785 786 786 787 787 788 788 789 789 790 790 790 790 790 791 791 791 791 791 791 792 792
726 728 730 731 733 735 737 738 740 741 743 744 746 748 749 750 751 753 754 756 758 759 760 762 763 765 766 767 768 769 770 771 772 773 774 775 776 777 778 779 779 780 781 782 783 784 784 785 786 786 786 787 787 788 788 789 789 789 789 790 790 790 790 790 790 791 791 791 791
725 727 729 731 733 735 736 738 739 741 742 744 746 747 748 749 751 753 754 756 758 759 760 762 763 764 765 767 768 769 770 770 772 773 774 775 776 777 777 778 779 780 780 781 782 783 784 785 785 786 786 787 787 787 788 788 788 788 789 789 789 789 789 790 790 790 790 790 790
725 727 729 730 732 734 736 737 739 740 742 744 745 747 748 749 751 753 755 756 758 759 760 762 763 764 765 767 768 768 769 770 771 772 773 774 775 776 777 778 779 779 780 781 782 783 784 785 785 786 786 787 787 787 787 788 788 788 788 788 789 789 789 789 789 789 789 789 789
725 727 729 730 732 734 735 737 739 740 742 744 745 746 747 749 751 753 755 756 758 759 760 762 763 764 765 766 767 768 769 770 771 772 773 774 775 776 777 778 778 779 780 781 782 783 783 784 785 785 786 786 786 787 787 788 788 788 788 788 788 788 788 789 789 789 789 789 789
725 726 728 730 732 734 735 737 739 740 742 744 745 746 747 749 751 753 755 756 758 759 760 761 763 764 765 766 767 767 768 769 770 772 773 774 775 776 777 777 778 779 780 781 781 782 783 784 784 785 785 786 786 787 787 787 787 788 788 788 788 788 788 789 789 789 789 789 789
725 726 728 730 731 733 735 737 739 740 742 743 745 746 747 749 751 753 755 756 757 759 760 761 762 764 765 765 766 767 768 769 770 772 773 774 775 776 777 778 779 779 780 780 781 782 783 783 784 785 785 785 786 786 787 786 787 787 788 788 788 788 788 789 789 789 789 789 790
724 726 728 729 731 733 735 737 738 740 742 743 745 746 748 750 751 753 754 756 757 759 760 761 762 763 764 765 766 767 769 770 771 772 773 774 775 776 777 778 779 779 780 780 781 782 783 783 784 784 785 785 786 786 786 786 787 787 788 788 788 788 789 789 789 789 790 790 790
724 725 727 729 731 733 735 737 738 740 741 743 745 746 748 750 751 753 754 755 757 758 759 760 762 763 764 765 766 768 769 770 771 772 773 774 775 776 777 778 778 779 780 780 781 782 782 783 784 784 785 785 785 785 786 786 786 787 787 787 788 788 789 789 790 790 790 790 790
724 725 727 730 731 733 735 737 738 740 741 743 745 746 748 750 751 753 754 755 756 758 759 760 762 763 764 765 767 768 769 770 771 772 773 775 775 776 777 778 778 779 780 780 781 782 782 783 784 784 784 785 785 785 785 786 786 787 787 787 788 788 789 789 790 790 790 790 790
724 725 728 730 731 733 735 736 738 740 742 743 745 746 748 750 751 752 754 755 756 758 759 760 762 763 764 765 767 768 769 770 771 772 774 775 776 776 777 778 778 779 780 780 781 782 782 783 783 784 784 785 785 785 786 786 787 787 787 788 788 788 789 789 790 790 790 790 790
724 726 728 730 731 733 735 737 738 740 742 744 745 747 748 750 751 752 754 755 756 758 759 760 761 763 764 765 766 768 769 770 771 773 774 775 776 777 777 778 778 779 780 780 781 782 782 783 783 784 784 785 785 786 786 786 787 787 788 788 788 788 789 789 789 790 790 790 791
724 726 728 730 731 733 735 737 739 740 742 744 745 746 748 749 751 752 754 755 756 758 759 760 761 763 764 765 766 768 769 770 772 773 775 775 776 777 777 778 779 779 780 780 781 782 782 783 783 784 784 785 785 786 787 787 787 788 788 788 788 789 789 789 790 790 790 791 791
724 726 728 730 732 734 735 737 739 740 742 744 745 746 748 749 751 752 754 755 756 758 759 760 761 763 764 765 767 768 770 771 772 774 775 775 776 777 777 778 779 780 780 781 781 782 783 783 784 784 785 785 786 786 787 788 788 788 788 789 789 789 789 790 790 790 791 791 792
725 726 728 730 732 734 736 738 739 741 742 744 745 746 748 749 751 752 754 755 757 758 759 760 761 763 764 765 767 769 770 771 772 773 774 775 776 776 777 778 779 780 780 781 782 782 783 784 784 785 785 785 786 787 788 788 788 788 789 789 789 789 790 790 790 790 791 791 792
725 727 729 730 732 734 736 738 739 741 742 744 745 747 748 750 751 753 755 756 757 759 760 761 762 763 765 766 768 769 770 772 773 774 775 775 776 777 777 778 779 780 781 782 782 783 783 784 785 785 785 786 787 787 788 788 788 789 789 789 789 789 790 790 790 790 791 791 792
725 727 729 730 732 734 736 738 740 741 743 744 746 747 749 750 752 753 755 756 757 759 760 761 763 764 765 767 768 770 771 772 773 774 775 775 776 777 778 779 780 780 781 782 783 783 784 784 785 785 786 786 787 788 788 788 789 789 789 789 789 790 790 790 790 790 790 791 792
725 726 729 730 733 735 736 738 740 741 743 745 746 748 749 751 752 754 755 756 757 759 760 762 763 765 766 768 769 770 771 772 774 775 775 776 777 777 778 779 780 781 781 782 783 784 784 785 785 786 786 787 788 788 788 788 789 789 789 790 790 790 790 790 790 790 791 791 792
725 727 728 730 733 735 737 738 740 741 743 745 746 748 749 751 752 754 755 756 758 759 761 763 764 766 767 769 770 771 772 773 774 775 776 777 777 778 779 780 780 781 782 782 783 784 785 785 785 786 787 787 788 788 788 789 789 789 790 790 790 790 790 790 791 791 791 791 792
725 727 729 731 733 735 737 739 740 742 743 745 746 748 750 751 753 754 756 757 758 760 761 763 765 766 767 769 770 771 772 774 775 775 776 777 778 779 779 780 781 781 782 783 783 784 785 785 786 786 787 788 788 789 789 789 789 790 790 790 790 791 791 791 791 791 792 792 792
726 727 729 731 733 735 737 739 740 742 743 745 747 748 750 751 753 755 756 758 759 760 761 763 765 766 767 769 770 771 773 774 775 776 777 778 779 779 780 780 781 782 783 783 784 785 785 786 786 787 788 788 789 789 789 790 790 790 790 791 791 791 792 792 792 792 793 793 793
726 728 730 731 733 735 737 739 740 742 744 745 747 749 750 752 754 755 756 758 759 760 762 763 765 766 768 769 770 771 773 774 775 776 777 778 779 780 780 781 782 782 783 784 785 785 785 786 787 787 788 789 789 789 790 790 790 791 791 791 792 792 792 793 793 793 793 794 794
727 729 730 732 734 735 737 739 741 742 744 745 747 749 750 752 754 755 757 758 760 761 762 764 765 767 768 769 770 772 773 774 775 776 777 778 779 780 781 782 782 783 784 785 785 785 786 787 787 788 788 789 790 790 790 790 791 791 792 792 792 793 793 793 794 794 794 794 795